Location: Baix
(44.7118°N, 4.7648°E)
Time: 03:34:02
(UTC+00:00)

Spot 1 - Pass Details

Date: 07 August 2020
Orbit: 577 x 776 km, 98.7° (Epoch: 27 September)

Event Time Altitude Azimuth Distance (km) Brightness Sun altitude
Exits shadow 01:06:44 57° 352° (N) 702 4.5 -26.3°
Drops below altitude 10° 01:10:03 10° 347° (NNW) 1,913 7.2 -26.1°
Sets 01:12:11 0° 347° (NNW) 2,808 8.2 -25.9°
